owner,sensor,date,latitude,longitude,vertical_datum,wind_speed,wind_to_direction,wind_speed_of_gust,qcFlag 
TCOON,ioos:station:TCOON:003:1,2017-02-01T00:00:00Z,26.8015,-97.4706,0.0,8.8,138.0,10.1,'11111222,11111222,11111222' 
TCOON,ioos:station:TCOON:003:1,2017-02-01T00:06:00Z,26.8015,-97.4706,0.0,8.7,138.0,9.7,'11111222,11111222,11111222' 
TCOON,ioos:station:TCOON:003:1,2017-02-01T00:12:00Z,26.8015,-97.4706,0.0,8.5,137.0,9.9,'11111222,11111222,11111222' 
TCOON,ioos:station:TCOON:003:1,2017-02-01T00:18:00Z,26.8015,-97.4706,0.0,8.5,137.0,9.9,'1111122,1111122,1111122' 
TCOON,ioos:station:TCOON:003:1,2017-02-01T00:24:00Z,26.8015,-97.4706,0.0,8.1,136.0,9.3,'11111222,11111222,11111222' 
TCOON,ioos:station:TCOON:003:1,2017-02-01T00:30:00Z,26.8015,-97.4706,0.0,7.7,135.0,8.9,'11111222,11111222,11111222' 
TCOON,ioos:station:TCOON:003:1,2017-02-01T00:36:00Z,26.8015,-97.4706,0.0,7.5,136.0,8.9,'11111222,11111222,11111222' 
TCOON,ioos:station:TCOON:003:1,2017-02-01T00:42:00Z,26.8015,-97.4706,0.0,7.6,138.0,9.0,'11111222,11111222,11111222' 
TCOON,ioos:station:TCOON:003:1,2017-02-01T00:48:00Z,26.8015,-97.4706,0.0,7.7,139.0,8.6,'11111222,11111222,11111222' 
TCOON,ioos:station:TCOON:003:1,2017-02-01T00:54:00Z,26.8015,-97.4706,0.0,7.7,141.0,8.7,'11111222,11111222,11111222' 
TCOON,ioos:station:TCOON:003:1,2017-02-01T01:00:00Z,26.8015,-97.4706,0.0,7.7,142.0,8.7,'11111222,11111222,11111222' 
TCOON,ioos:station:TCOON:003:1,2017-02-01T01:06:00Z,26.8015,-97.4706,0.0,7.4,138.0,8.5,'11111222,11111222,11111222' 
TCOON,ioos:station:TCOON:003:1,2017-02-01T01:12:00Z,26.8015,-97.4706,0.0,7.7,141.0,8.6,'11111222,11111222,11111222' 
TCOON,ioos:station:TCOON:003:1,2017-02-01T01:18:00Z,26.8015,-97.4706,0.0,7.7,141.0,8.6,'1111122,1111122,1111122' 
TCOON,ioos:station:TCOON:003:1,2017-02-01T01:24:00Z,26.8015,-97.4706,0.0,7.3,142.0,8.6,'11111222,11111222,11111222' 
TCOON,ioos:station:TCOON:003:1,2017-02-01T01:30:00Z,26.8015,-97.4706,0.0,7.5,143.0,8.3,'11111222,11111222,11111222' 
TCOON,ioos:station:TCOON:003:1,2017-02-01T01:36:00Z,26.8015,-97.4706,0.0,7.2,145.0,8.4,'11111222,11111222,11111222' 
TCOON,ioos:station:TCOON:003:1,2017-02-01T01:42:00Z,26.8015,-97.4706,0.0,6.2,144.0,7.5,'11111222,11111222,11111222' 
TCOON,ioos:station:TCOON:003:1,2017-02-01T01:48:00Z,26.8015,-97.4706,0.0,6.1,142.0,6.8,'11111222,11111222,11111222' 
TCOON,ioos:station:TCOON:003:1,2017-02-01T01:54:00Z,26.8015,-97.4706,0.0,6.5,144.0,7.1,'11111222,11111222,11111222' 
TCOON,ioos:station:TCOON:003:1,2017-02-01T02:00:00Z,26.8015,-97.4706,0.0,6.3,143.0,7.0,'11111222,11111222,11111222' 
TCOON,ioos:station:TCOON:003:1,2017-02-01T02:06:00Z,26.8015,-97.4706,0.0,6.1,143.0,6.8,'11111222,11111222,11111222' 
TCOON,ioos:station:TCOON:003:1,2017-02-01T02:12:00Z,26.8015,-97.4706,0.0,6.2,144.0,6.9,'11111222,11111222,11111222' 
TCOON,ioos:station:TCOON:003:1,2017-02-01T02:18:00Z,26.8015,-97.4706,0.0,6.2,144.0,6.9,'1111122,1111122,1111122' 
TCOON,ioos:station:TCOON:003:1,2017-02-01T02:24:00Z,26.8015,-97.4706,0.0,6.4,150.0,7.1,'11111222,11111222,11111222' 
TCOON,ioos:station:TCOON:003:1,2017-02-01T02:30:00Z,26.8015,-97.4706,0.0,6.0,151.0,7.2,'11111222,11111222,11111222' 
TCOON,ioos:station:TCOON:003:1,2017-02-01T02:36:00Z,26.8015,-97.4706,0.0,6.2,152.0,7.0,'11111222,11111222,11111222' 
TCOON,ioos:station:TCOON:003:1,2017-02-01T02:42:00Z,26.8015,-97.4706,0.0,6.4,152.0,7.1,'11111222,11111222,11111222' 
TCOON,ioos:station:TCOON:003:1,2017-02-01T02:48:00Z,26.8015,-97.4706,0.0,6.1,152.0,7.2,'11111222,11111222,11111222' 
TCOON,ioos:station:TCOON:003:1,2017-02-01T02:54:00Z,26.8015,-97.4706,0.0,6.0,155.0,6.9,'11111222,11111222,11111222' 
TCOON,ioos:station:TCOON:003:1,2017-02-01T03:00:00Z,26.8015,-97.4706,0.0,5.5,158.0,6.5,'11111222,11111222,11111222' 
TCOON,ioos:station:TCOON:003:1,2017-02-01T03:06:00Z,26.8015,-97.4706,0.0,5.2,159.0,6.1,'11111222,11111222,11111222' 
TCOON,ioos:station:TCOON:003:1,2017-02-01T03:12:00Z,26.8015,-97.4706,0.0,4.7,161.0,5.4,'11111222,11111222,11111222' 
TCOON,ioos:station:TCOON:003:1,2017-02-01T03:18:00Z,26.8015,-97.4706,0.0,4.7,161.0,5.4,'1111122,1111122,1111122' 
TCOON,ioos:station:TCOON:003:1,2017-02-01T03:24:00Z,26.8015,-97.4706,0.0,3.8,164.0,4.4,'11111222,11111222,11111222' 
TCOON,ioos:station:TCOON:003:1,2017-02-01T03:30:00Z,26.8015,-97.4706,0.0,4.0,166.0,4.4,'11111222,11111222,11111222' 
TCOON,ioos:station:TCOON:003:1,2017-02-01T03:36:00Z,26.8015,-97.4706,0.0,4.0,164.0,4.5,'11111222,11111222,11111222' 
TCOON,ioos:station:TCOON:003:1,2017-02-01T03:42:00Z,26.8015,-97.4706,0.0,4.1,164.0,4.5,'11111222,11111222,11111222' 
TCOON,ioos:station:TCOON:003:1,2017-02-01T03:48:00Z,26.8015,-97.4706,0.0,4.4,160.0,4.9,'11111222,11111222,11111222' 
TCOON,ioos:station:TCOON:003:1,2017-02-01T03:54:00Z,26.8015,-97.4706,0.0,4.6,159.0,5.1,'11111222,11111222,11111222' 
TCOON,ioos:station:TCOON:003:1,2017-02-01T04:00:00Z,26.8015,-97.4706,0.0,4.3,156.0,5.1,'11111222,11111222,11111222' 
TCOON,ioos:station:TCOON:003:1,2017-02-01T04:06:00Z,26.8015,-97.4706,0.0,4.3,155.0,4.9,'11111222,11111222,11111222' 
TCOON,ioos:station:TCOON:003:1,2017-02-01T04:12:00Z,26.8015,-97.4706,0.0,5.2,159.0,5.5,'11111222,11111222,11111222' 
TCOON,ioos:station:TCOON:003:1,2017-02-01T04:18:00Z,26.8015,-97.4706,0.0,5.2,159.0,5.5,'1111122,1111122,1111122' 
TCOON,ioos:station:TCOON:003:1,2017-02-01T04:24:00Z,26.8015,-97.4706,0.0,4.5,166.0,5.3,'11111222,11111222,11111222' 
TCOON,ioos:station:TCOON:003:1,2017-02-01T04:30:00Z,26.8015,-97.4706,0.0,4.3,166.0,5.0,'11111222,11111222,11111222' 
TCOON,ioos:station:TCOON:003:1,2017-02-01T04:36:00Z,26.8015,-97.4706,0.0,4.7,167.0,5.1,'11111222,11111222,11111222' 
TCOON,ioos:station:TCOON:003:1,2017-02-01T04:42:00Z,26.8015,-97.4706,0.0,4.9,168.0,5.2,'11111222,11111222,11111222' 
TCOON,ioos:station:TCOON:003:1,2017-02-01T04:48:00Z,26.8015,-97.4706,0.0,4.4,167.0,5.2,'11111222,11111222,11111222' 
TCOON,ioos:station:TCOON:003:1,2017-02-01T04:54:00Z,26.8015,-97.4706,0.0,3.9,167.0,4.5,'11111222,11111222,11111222' 
TCOON,ioos:station:TCOON:003:1,2017-02-01T05:00:00Z,26.8015,-97.4706,0.0,3.8,165.0,4.2,'11111222,11111222,11111222' 
TCOON,ioos:station:TCOON:003:1,2017-02-01T05:06:00Z,26.8015,-97.4706,0.0,3.4,161.0,4.0,'11111222,11111222,11111222' 
TCOON,ioos:station:TCOON:003:1,2017-02-01T05:12:00Z,26.8015,-97.4706,0.0,2.9,158.0,3.8,'11111222,11111222,11111222' 
TCOON,ioos:station:TCOON:003:1,2017-02-01T05:18:00Z,26.8015,-97.4706,0.0,2.9,158.0,3.8,'1111122,1111122,1111122' 
TCOON,ioos:station:TCOON:003:1,2017-02-01T05:24:00Z,26.8015,-97.4706,0.0,1.8,151.0,2.7,'11111222,11111222,11111222' 
TCOON,ioos:station:TCOON:003:1,2017-02-01T05:30:00Z,26.8015,-97.4706,0.0,1.8,150.0,2.5,'11111222,11111222,11111222' 
TCOON,ioos:station:TCOON:003:1,2017-02-01T05:36:00Z,26.8015,-97.4706,0.0,1.5,144.0,2.0,'11111222,11111222,11111222' 
TCOON,ioos:station:TCOON:003:1,2017-02-01T05:42:00Z,26.8015,-97.4706,0.0,1.3,135.0,1.8,'11111222,11111222,11111222' 
TCOON,ioos:station:TCOON:003:1,2017-02-01T05:48:00Z,26.8015,-97.4706,0.0,1.3,137.0,1.5,'11111222,11111222,11111222' 
TCOON,ioos:station:TCOON:003:1,2017-02-01T05:54:00Z,26.8015,-97.4706,0.0,1.4,137.0,1.5,'11111222,11111222,11111222' 
TCOON,ioos:station:TCOON:003:1,2017-02-01T06:00:00Z,26.8015,-97.4706,0.0,1.6,140.0,1.7,'11111222,11111222,11111222' 
TCOON,ioos:station:TCOON:003:1,2017-02-01T06:06:00Z,26.8015,-97.4706,0.0,1.4,151.0,1.8,'11111222,11111222,11111222' 
TCOON,ioos:station:TCOON:003:1,2017-02-01T06:12:00Z,26.8015,-97.4706,0.0,1.3,158.0,1.7,'11111222,11111222,11111222' 
TCOON,ioos:station:TCOON:003:1,2017-02-01T06:18:00Z,26.8015,-97.4706,0.0,1.7,170.0,1.9,'11111222,11111222,11111222' 
TCOON,ioos:station:TCOON:003:1,2017-02-01T06:24:00Z,26.8015,-97.4706,0.0,1.7,170.0,1.9,'1111122,1111122,1111122' 
TCOON,ioos:station:TCOON:003:1,2017-02-01T06:30:00Z,26.8015,-97.4706,0.0,2.2,178.0,2.5,'11111222,11111222,11111222' 
TCOON,ioos:station:TCOON:003:1,2017-02-01T06:36:00Z,26.8015,-97.4706,0.0,2.8,175.0,3.1,'11111222,11111222,11111222' 
TCOON,ioos:station:TCOON:003:1,2017-02-01T06:42:00Z,26.8015,-97.4706,0.0,3.2,175.0,3.5,'11111222,11111222,11111222' 
TCOON,ioos:station:TCOON:003:1,2017-02-01T06:48:00Z,26.8015,-97.4706,0.0,3.3,172.0,3.9,'11111222,11111222,11111222' 
TCOON,ioos:station:TCOON:003:1,2017-02-01T06:54:00Z,26.8015,-97.4706,0.0,3.4,168.0,3.7,'11111222,11111222,11111222' 
TCOON,ioos:station:TCOON:003:1,2017-02-01T07:00:00Z,26.8015,-97.4706,0.0,3.5,169.0,3.8,'11111222,11111222,11111222' 
TCOON,ioos:station:TCOON:003:1,2017-02-01T07:06:00Z,26.8015,-97.4706,0.0,3.4,170.0,3.8,'11111222,11111222,11111222' 
TCOON,ioos:station:TCOON:003:1,2017-02-01T07:12:00Z,26.8015,-97.4706,0.0,3.1,169.0,4.1,'11111222,11111222,11111222' 
TCOON,ioos:station:TCOON:003:1,2017-02-01T07:18:00Z,26.8015,-97.4706,0.0,3.1,169.0,4.1,'1111122,1111122,1111122' 
TCOON,ioos:station:TCOON:003:1,2017-02-01T07:24:00Z,26.8015,-97.4706,0.0,3.8,166.0,4.1,'11111222,11111222,11111222' 
TCOON,ioos:station:TCOON:003:1,2017-02-01T07:30:00Z,26.8015,-97.4706,0.0,3.4,164.0,4.1,'11111222,11111222,11111222' 
TCOON,ioos:station:TCOON:003:1,2017-02-01T07:36:00Z,26.8015,-97.4706,0.0,2.9,163.0,3.8,'11111222,11111222,11111222' 
TCOON,ioos:station:TCOON:003:1,2017-02-01T07:42:00Z,26.8015,-97.4706,0.0,2.7,161.0,3.4,'11111222,11111222,11111222' 
TCOON,ioos:station:TCOON:003:1,2017-02-01T07:48:00Z,26.8015,-97.4706,0.0,3.1,160.0,3.5,'11111222,11111222,11111222' 
TCOON,ioos:station:TCOON:003:1,2017-02-01T07:54:00Z,26.8015,-97.4706,0.0,3.3,159.0,3.9,'11111222,11111222,11111222' 
TCOON,ioos:station:TCOON:003:1,2017-02-01T08:00:00Z,26.8015,-97.4706,0.0,4.0,159.0,4.5,'11111222,11111222,11111222' 
TCOON,ioos:station:TCOON:003:1,2017-02-01T08:06:00Z,26.8015,-97.4706,0.0,3.5,165.0,4.3,'11111222,11111222,11111222' 
TCOON,ioos:station:TCOON:003:1,2017-02-01T08:12:00Z,26.8015,-97.4706,0.0,3.7,169.0,4.0,'11111222,11111222,11111222' 
TCOON,ioos:station:TCOON:003:1,2017-02-01T08:18:00Z,26.8015,-97.4706,0.0,3.7,169.0,4.0,'1111122,1111122,1111122' 
TCOON,ioos:station:TCOON:003:1,2017-02-01T08:24:00Z,26.8015,-97.4706,0.0,4.8,167.0,5.2,'11111222,11111222,11111222' 
TCOON,ioos:station:TCOON:003:1,2017-02-01T08:30:00Z,26.8015,-97.4706,0.0,5.2,168.0,5.7,'11111222,11111222,11111222' 
TCOON,ioos:station:TCOON:003:1,2017-02-01T08:36:00Z,26.8015,-97.4706,0.0,5.3,167.0,5.7,'11111222,11111222,11111222' 
TCOON,ioos:station:TCOON:003:1,2017-02-01T08:42:00Z,26.8015,-97.4706,0.0,5.2,169.0,5.6,'11111222,11111222,11111222' 
TCOON,ioos:station:TCOON:003:1,2017-02-01T08:48:00Z,26.8015,-97.4706,0.0,5.1,171.0,5.6,'11111222,11111222,11111222' 
TCOON,ioos:station:TCOON:003:1,2017-02-01T08:54:00Z,26.8015,-97.4706,0.0,4.8,170.0,5.6,'11111222,11111222,11111222' 
TCOON,ioos:station:TCOON:003:1,2017-02-01T09:00:00Z,26.8015,-97.4706,0.0,4.2,171.0,5.1,'11111222,11111222,11111222' 
TCOON,ioos:station:TCOON:003:1,2017-02-01T09:06:00Z,26.8015,-97.4706,0.0,3.7,170.0,4.3,'11111222,11111222,11111222' 
TCOON,ioos:station:TCOON:003:1,2017-02-01T09:12:00Z,26.8015,-97.4706,0.0,3.5,168.0,4.1,'11111222,11111222,11111222' 
TCOON,ioos:station:TCOON:003:1,2017-02-01T09:18:00Z,26.8015,-97.4706,0.0,3.5,168.0,4.1,'1111122,1111122,1111122' 
TCOON,ioos:station:TCOON:003:1,2017-02-01T09:24:00Z,26.8015,-97.4706,0.0,3.1,167.0,4.1,'11111222,11111222,11111222' 
TCOON,ioos:station:TCOON:003:1,2017-02-01T09:30:00Z,26.8015,-97.4706,0.0,2.7,173.0,3.1,'11111222,11111222,11111222' 
TCOON,ioos:station:TCOON:003:1,2017-02-01T09:36:00Z,26.8015,-97.4706,0.0,2.2,176.0,2.8,'11111222,11111222,11111222' 
TCOON,ioos:station:TCOON:003:1,2017-02-01T09:42:00Z,26.8015,-97.4706,0.0,2.2,174.0,2.5,'11111222,11111222,11111222' 
TCOON,ioos:station:TCOON:003:1,2017-02-01T09:48:00Z,26.8015,-97.4706,0.0,2.0,166.0,2.6,'11111222,11111222,11111222' 
TCOON,ioos:station:TCOON:003:1,2017-02-01T09:54:00Z,26.8015,-97.4706,0.0,2.0,164.0,2.7,'11111222,11111222,11111222' 
TCOON,ioos:station:TCOON:003:1,2017-02-01T10:00:00Z,26.8015,-97.4706,0.0,1.9,159.0,2.4,'11111222,11111222,11111222' 
TCOON,ioos:station:TCOON:003:1,2017-02-01T10:06:00Z,26.8015,-97.4706,0.0,2.1,149.0,2.4,'11111222,11111222,11111222' 
TCOON,ioos:station:TCOON:003:1,2017-02-01T10:12:00Z,26.8015,-97.4706,0.0,2.3,147.0,2.6,'11111222,11111222,11111222' 
TCOON,ioos:station:TCOON:003:1,2017-02-01T10:18:00Z,26.8015,-97.4706,0.0,2.3,147.0,2.6,'1111122,1111122,1111122' 
TCOON,ioos:station:TCOON:003:1,2017-02-01T10:24:00Z,26.8015,-97.4706,0.0,2.6,156.0,2.8,'11111222,11111222,11111222' 
TCOON,ioos:station:TCOON:003:1,2017-02-01T10:30:00Z,26.8015,-97.4706,0.0,3.0,150.0,3.2,'11111222,11111222,11111222' 
TCOON,ioos:station:TCOON:003:1,2017-02-01T10:36:00Z,26.8015,-97.4706,0.0,3.0,154.0,3.2,'11111222,11111222,11111222' 
TCOON,ioos:station:TCOON:003:1,2017-02-01T10:42:00Z,26.8015,-97.4706,0.0,3.0,160.0,3.4,'11111222,11111222,11111222' 
TCOON,ioos:station:TCOON:003:1,2017-02-01T10:48:00Z,26.8015,-97.4706,0.0,3.2,160.0,3.5,'11111222,11111222,11111222' 
TCOON,ioos:station:TCOON:003:1,2017-02-01T10:54:00Z,26.8015,-97.4706,0.0,2.9,160.0,3.5,'11111222,11111222,11111222' 
TCOON,ioos:station:TCOON:003:1,2017-02-01T11:00:00Z,26.8015,-97.4706,0.0,3.0,162.0,3.4,'11111222,11111222,11111222' 
TCOON,ioos:station:TCOON:003:1,2017-02-01T11:06:00Z,26.8015,-97.4706,0.0,3.1,161.0,3.5,'11111222,11111222,11111222' 
TCOON,ioos:station:TCOON:003:1,2017-02-01T11:12:00Z,26.8015,-97.4706,0.0,3.5,160.0,3.8,'11111222,11111222,11111222' 
TCOON,ioos:station:TCOON:003:1,2017-02-01T11:18:00Z,26.8015,-97.4706,0.0,3.5,160.0,3.8,'1111122,1111122,1111122' 
TCOON,ioos:station:TCOON:003:1,2017-02-01T11:24:00Z,26.8015,-97.4706,0.0,4.0,154.0,4.4,'11111222,11111222,11111222' 
TCOON,ioos:station:TCOON:003:1,2017-02-01T11:30:00Z,26.8015,-97.4706,0.0,4.0,154.0,4.6,'11111222,11111222,11111222' 
TCOON,ioos:station:TCOON:003:1,2017-02-01T11:36:00Z,26.8015,-97.4706,0.0,4.2,158.0,4.6,'11111222,11111222,11111222' 
TCOON,ioos:station:TCOON:003:1,2017-02-01T11:42:00Z,26.8015,-97.4706,0.0,4.5,160.0,5.0,'11111222,11111222,11111222' 
TCOON,ioos:station:TCOON:003:1,2017-02-01T11:48:00Z,26.8015,-97.4706,0.0,3.8,160.0,5.0,'11111222,11111222,11111222' 
TCOON,ioos:station:TCOON:003:1,2017-02-01T11:54:00Z,26.8015,-97.4706,0.0,3.5,165.0,4.3,'11111222,11111222,11111222' 
TCOON,ioos:station:TCOON:003:1,2017-02-01T12:00:00Z,26.8015,-97.4706,0.0,3.2,166.0,4.0,'11111222,11111222,11111222' 
TCOON,ioos:station:TCOON:003:1,2017-02-01T12:06:00Z,26.8015,-97.4706,0.0,3.1,170.0,4.0,'11111222,11111222,11111222' 
TCOON,ioos:station:TCOON:003:1,2017-02-01T12:12:00Z,26.8015,-97.4706,0.0,3.1,170.0,3.5,'11111222,11111222,11111222' 
TCOON,ioos:station:TCOON:003:1,2017-02-01T12:18:00Z,26.8015,-97.4706,0.0,3.1,170.0,3.5,'1111122,1111122,1111122' 
TCOON,ioos:station:TCOON:003:1,2017-02-01T12:24:00Z,26.8015,-97.4706,0.0,3.9,179.0,4.2,'11111222,11111222,11111222' 
TCOON,ioos:station:TCOON:003:1,2017-02-01T12:30:00Z,26.8015,-97.4706,0.0,3.4,176.0,4.1,'11111222,11111222,11111222' 
TCOON,ioos:station:TCOON:003:1,2017-02-01T12:36:00Z,26.8015,-97.4706,0.0,3.0,180.0,3.5,'11111222,11111222,11111222' 
TCOON,ioos:station:TCOON:003:1,2017-02-01T12:42:00Z,26.8015,-97.4706,0.0,3.1,179.0,3.5,'11111222,11111222,11111222' 
TCOON,ioos:station:TCOON:003:1,2017-02-01T12:48:00Z,26.8015,-97.4706,0.0,2.7,179.0,3.3,'11111222,11111222,11111222' 
TCOON,ioos:station:TCOON:003:1,2017-02-01T12:54:00Z,26.8015,-97.4706,0.0,2.3,173.0,3.1,'11111222,11111222,11111222' 
TCOON,ioos:station:TCOON:003:1,2017-02-01T13:00:00Z,26.8015,-97.4706,0.0,2.1,170.0,2.5,'11111222,11111222,11111222' 
TCOON,ioos:station:TCOON:003:1,2017-02-01T13:06:00Z,26.8015,-97.4706,0.0,2.1,172.0,2.3,'11111222,11111222,11111222' 
TCOON,ioos:station:TCOON:003:1,2017-02-01T13:12:00Z,26.8015,-97.4706,0.0,2.1,166.0,2.3,'11111222,11111222,11111222' 
TCOON,ioos:station:TCOON:003:1,2017-02-01T13:18:00Z,26.8015,-97.4706,0.0,2.1,166.0,2.3,'1111122,1111122,1111122' 
TCOON,ioos:station:TCOON:003:1,2017-02-01T13:24:00Z,26.8015,-97.4706,0.0,1.8,156.0,2.2,'11111222,11111222,11111222' 
TCOON,ioos:station:TCOON:003:1,2017-02-01T13:30:00Z,26.8015,-97.4706,0.0,1.2,152.0,2.1,'11111222,11111222,11111222' 
TCOON,ioos:station:TCOON:003:1,2017-02-01T13:36:00Z,26.8015,-97.4706,0.0,1.4,153.0,1.6,'11111222,11111222,11111222' 
TCOON,ioos:station:TCOON:003:1,2017-02-01T13:42:00Z,26.8015,-97.4706,0.0,1.8,150.0,1.9,'11111222,11111222,11111222' 
TCOON,ioos:station:TCOON:003:1,2017-02-01T13:48:00Z,26.8015,-97.4706,0.0,2.2,150.0,2.4,'11111222,11111222,11111222' 
TCOON,ioos:station:TCOON:003:1,2017-02-01T13:54:00Z,26.8015,-97.4706,0.0,2.3,148.0,2.4,'11111222,11111222,11111222' 
TCOON,ioos:station:TCOON:003:1,2017-02-01T14:00:00Z,26.8015,-97.4706,0.0,2.5,154.0,2.7,'11111222,11111222,11111222' 
TCOON,ioos:station:TCOON:003:1,2017-02-01T14:06:00Z,26.8015,-97.4706,0.0,2.3,147.0,2.6,'11111222,11111222,11111222' 
TCOON,ioos:station:TCOON:003:1,2017-02-01T14:12:00Z,26.8015,-97.4706,0.0,2.3,150.0,2.5,'11111222,11111222,11111222' 
TCOON,ioos:station:TCOON:003:1,2017-02-01T14:18:00Z,26.8015,-97.4706,0.0,2.3,150.0,2.5,'1111122,1111122,1111122' 
TCOON,ioos:station:TCOON:003:1,2017-02-01T14:24:00Z,26.8015,-97.4706,0.0,2.6,146.0,2.9,'11111222,11111222,11111222' 
TCOON,ioos:station:TCOON:003:1,2017-02-01T14:30:00Z,26.8015,-97.4706,0.0,2.8,150.0,3.2,'11111222,11111222,11111222' 
TCOON,ioos:station:TCOON:003:1,2017-02-01T14:36:00Z,26.8015,-97.4706,0.0,2.9,148.0,3.2,'11111222,11111222,11111222' 
TCOON,ioos:station:TCOON:003:1,2017-02-01T14:42:00Z,26.8015,-97.4706,0.0,2.9,149.0,3.1,'11111222,11111222,11111222' 
TCOON,ioos:station:TCOON:003:1,2017-02-01T14:48:00Z,26.8015,-97.4706,0.0,3.3,145.0,3.5,'11111222,11111222,11111222' 
TCOON,ioos:station:TCOON:003:1,2017-02-01T14:54:00Z,26.8015,-97.4706,0.0,3.8,146.0,4.1,'11111222,11111222,11111222' 
TCOON,ioos:station:TCOON:003:1,2017-02-01T15:00:00Z,26.8015,-97.4706,0.0,3.8,147.0,4.4,'11111222,11111222,11111222' 
TCOON,ioos:station:TCOON:003:1,2017-02-01T15:06:00Z,26.8015,-97.4706,0.0,4.0,151.0,4.4,'11111222,11111222,11111222' 
TCOON,ioos:station:TCOON:003:1,2017-02-01T15:12:00Z,26.8015,-97.4706,0.0,3.6,152.0,4.2,'11111222,11111222,11111222' 
TCOON,ioos:station:TCOON:003:1,2017-02-01T15:18:00Z,26.8015,-97.4706,0.0,3.6,152.0,4.2,'1111122,1111122,1111122' 
TCOON,ioos:station:TCOON:003:1,2017-02-01T15:24:00Z,26.8015,-97.4706,0.0,3.9,151.0,4.2,'11111222,11111222,11111222' 
TCOON,ioos:station:TCOON:003:1,2017-02-01T15:30:00Z,26.8015,-97.4706,0.0,4.1,150.0,4.6,'11111222,11111222,11111222' 
TCOON,ioos:station:TCOON:003:1,2017-02-01T15:36:00Z,26.8015,-97.4706,0.0,3.8,147.0,4.5,'11111222,11111222,11111222' 
TCOON,ioos:station:TCOON:003:1,2017-02-01T15:42:00Z,26.8015,-97.4706,0.0,4.1,149.0,4.9,'11111222,11111222,11111222' 
TCOON,ioos:station:TCOON:003:1,2017-02-01T15:48:00Z,26.8015,-97.4706,0.0,3.8,149.0,4.8,'11111222,11111222,11111222' 
TCOON,ioos:station:TCOON:003:1,2017-02-01T15:54:00Z,26.8015,-97.4706,0.0,4.0,143.0,4.5,'11111222,11111222,11111222' 
TCOON,ioos:station:TCOON:003:1,2017-02-01T16:00:00Z,26.8015,-97.4706,0.0,3.9,142.0,4.4,'11111222,11111222,11111222' 
TCOON,ioos:station:TCOON:003:1,2017-02-01T16:06:00Z,26.8015,-97.4706,0.0,4.0,143.0,4.5,'11111222,11111222,11111222' 
TCOON,ioos:station:TCOON:003:1,2017-02-01T16:12:00Z,26.8015,-97.4706,0.0,3.9,144.0,4.5,'11111222,11111222,11111222' 
TCOON,ioos:station:TCOON:003:1,2017-02-01T16:18:00Z,26.8015,-97.4706,0.0,3.9,144.0,4.5,'1111122,1111122,1111122' 
TCOON,ioos:station:TCOON:003:1,2017-02-01T16:24:00Z,26.8015,-97.4706,0.0,3.7,138.0,4.1,'11111222,11111222,11111222' 
TCOON,ioos:station:TCOON:003:1,2017-02-01T16:30:00Z,26.8015,-97.4706,0.0,3.7,139.0,4.1,'11111222,11111222,11111222' 
TCOON,ioos:station:TCOON:003:1,2017-02-01T16:36:00Z,26.8015,-97.4706,0.0,4.2,141.0,4.5,'11111222,11111222,11111222' 
TCOON,ioos:station:TCOON:003:1,2017-02-01T16:42:00Z,26.8015,-97.4706,0.0,4.3,140.0,5.0,'11111222,11111222,11111222' 
TCOON,ioos:station:TCOON:003:1,2017-02-01T16:48:00Z,26.8015,-97.4706,0.0,4.8,138.0,5.4,'11111222,11111222,11111222' 
TCOON,ioos:station:TCOON:003:1,2017-02-01T16:54:00Z,26.8015,-97.4706,0.0,5.3,136.0,5.9,'11111222,11111222,11111222' 
TCOON,ioos:station:TCOON:003:1,2017-02-01T17:00:00Z,26.8015,-97.4706,0.0,6.1,140.0,6.8,'11111222,11111222,11111222' 
TCOON,ioos:station:TCOON:003:1,2017-02-01T17:06:00Z,26.8015,-97.4706,0.0,6.1,139.0,7.3,'11111222,11111222,11111222' 
TCOON,ioos:station:TCOON:003:1,2017-02-01T17:12:00Z,26.8015,-97.4706,0.0,5.3,142.0,6.7,'11111222,11111222,11111222' 
TCOON,ioos:station:TCOON:003:1,2017-02-01T17:18:00Z,26.8015,-97.4706,0.0,5.3,142.0,6.7,'1111122,1111122,1111122' 
TCOON,ioos:station:TCOON:003:1,2017-02-01T17:24:00Z,26.8015,-97.4706,0.0,5.9,143.0,6.5,'11111222,11111222,11111222' 
TCOON,ioos:station:TCOON:003:1,2017-02-01T17:30:00Z,26.8015,-97.4706,0.0,5.0,142.0,6.5,'11111222,11111222,11111222' 
TCOON,ioos:station:TCOON:003:1,2017-02-01T17:36:00Z,26.8015,-97.4706,0.0,4.9,141.0,5.6,'11111222,11111222,11111222' 
TCOON,ioos:station:TCOON:003:1,2017-02-01T17:42:00Z,26.8015,-97.4706,0.0,5.5,139.0,6.2,'11111222,11111222,11111222' 
TCOON,ioos:station:TCOON:003:1,2017-02-01T17:48:00Z,26.8015,-97.4706,0.0,5.0,139.0,5.7,'11111222,11111222,11111222' 
TCOON,ioos:station:TCOON:003:1,2017-02-01T17:54:00Z,26.8015,-97.4706,0.0,5.5,140.0,6.1,'11111222,11111222,11111222' 
TCOON,ioos:station:TCOON:003:1,2017-02-01T18:00:00Z,26.8015,-97.4706,0.0,6.0,138.0,6.9,'11111222,11111222,11111222' 
TCOON,ioos:station:TCOON:003:1,2017-02-01T18:06:00Z,26.8015,-97.4706,0.0,6.4,139.0,7.0,'11111222,11111222,11111222' 
TCOON,ioos:station:TCOON:003:1,2017-02-01T18:12:00Z,26.8015,-97.4706,0.0,6.5,140.0,7.4,'11111222,11111222,11111222' 
TCOON,ioos:station:TCOON:003:1,2017-02-01T18:18:00Z,26.8015,-97.4706,0.0,6.5,140.0,7.4,'1111122,1111122,1111122' 
TCOON,ioos:station:TCOON:003:1,2017-02-01T18:24:00Z,26.8015,-97.4706,0.0,5.8,141.0,7.4,'11111222,11111222,11111222' 
TCOON,ioos:station:TCOON:003:1,2017-02-01T18:30:00Z,26.8015,-97.4706,0.0,5.3,141.0,6.4,'11111222,11111222,11111222' 
TCOON,ioos:station:TCOON:003:1,2017-02-01T18:36:00Z,26.8015,-97.4706,0.0,6.2,141.0,7.2,'11111222,11111222,11111222' 
TCOON,ioos:station:TCOON:003:1,2017-02-01T18:42:00Z,26.8015,-97.4706,0.0,5.7,141.0,7.1,'11111222,11111222,11111222' 
TCOON,ioos:station:TCOON:003:1,2017-02-01T18:48:00Z,26.8015,-97.4706,0.0,6.4,142.0,7.3,'11111222,11111222,11111222' 
TCOON,ioos:station:TCOON:003:1,2017-02-01T18:54:00Z,26.8015,-97.4706,0.0,6.3,143.0,7.9,'11111222,11111222,11111222' 
TCOON,ioos:station:TCOON:003:1,2017-02-01T19:00:00Z,26.8015,-97.4706,0.0,6.5,141.0,7.5,'11111222,11111222,11111222' 
TCOON,ioos:station:TCOON:003:1,2017-02-01T19:06:00Z,26.8015,-97.4706,0.0,6.7,143.0,7.6,'11111222,11111222,11111222' 
TCOON,ioos:station:TCOON:003:1,2017-02-01T19:12:00Z,26.8015,-97.4706,0.0,6.8,141.0,7.7,'11111222,11111222,11111222' 
TCOON,ioos:station:TCOON:003:1,2017-02-01T19:18:00Z,26.8015,-97.4706,0.0,6.8,141.0,7.7,'1111122,1111122,1111122' 
TCOON,ioos:station:TCOON:003:1,2017-02-01T19:24:00Z,26.8015,-97.4706,0.0,6.7,145.0,7.5,'11111222,11111222,11111222' 
TCOON,ioos:station:TCOON:003:1,2017-02-01T19:30:00Z,26.8015,-97.4706,0.0,6.9,145.0,7.8,'11111222,11111222,11111222' 
TCOON,ioos:station:TCOON:003:1,2017-02-01T19:36:00Z,26.8015,-97.4706,0.0,7.0,143.0,8.0,'11111222,11111222,11111222' 
TCOON,ioos:station:TCOON:003:1,2017-02-01T19:42:00Z,26.8015,-97.4706,0.0,6.7,144.0,8.2,'11111222,11111222,11111222' 
TCOON,ioos:station:TCOON:003:1,2017-02-01T19:48:00Z,26.8015,-97.4706,0.0,6.8,141.0,8.3,'11111222,11111222,11111222' 
TCOON,ioos:station:TCOON:003:1,2017-02-01T19:54:00Z,26.8015,-97.4706,0.0,6.3,138.0,7.7,'11111222,11111222,11111222' 
TCOON,ioos:station:TCOON:003:1,2017-02-01T20:00:00Z,26.8015,-97.4706,0.0,6.2,139.0,7.1,'11111222,11111222,11111222' 
TCOON,ioos:station:TCOON:003:1,2017-02-01T20:06:00Z,26.8015,-97.4706,0.0,6.7,138.0,7.3,'11111222,11111222,11111222' 
TCOON,ioos:station:TCOON:003:1,2017-02-01T20:12:00Z,26.8015,-97.4706,0.0,5.8,141.0,7.3,'11111222,11111222,11111222' 
TCOON,ioos:station:TCOON:003:1,2017-02-01T20:18:00Z,26.8015,-97.4706,0.0,5.8,141.0,7.3,'1111122,1111122,1111122' 